Other Public Products
Issued by NWS Grand Forks, ND

Home | Current Version | Previous Version | Text Only | Print | Product List | Glossary Off
Versions: 1 2 3 4 5 6 7 8 9 10 11 12 13 14 15 16 17 18 19 20 21 22 23 24 25 26 27 28 29 30 31 32 33 34 35 36 37 38 39 40 41 42 43 44 45 46 47 48 49 50

000
FPUS83 KFGF 191331
OPUFGF
PRAIRIE TO PINES WEATHER ROUNDUP
NATIONAL WEATHER SERVICE EASTERN NORTH DAKOTA/GRAND FORKS ND
800 AM CDT FRI SEP 19 2014

 **SATELLITE DATA USED TO AUGMENT SKY COVER AT AUTOMATED STATIONS**
 *****  WEATHER ACROSS EASTERN NORTH DAKOTA  *****

CITY           SKY/WX    TMP DP  RH WIND       PRES   REMARKS
GRAND FORKS    CLOUDY    64  60  87 S17       29.53F
GRAND FORKS AF CLOUDY    65  64  96 S12       29.53F
GRAND CITY NWS   N/A     63 N/A N/A S12         N/A
BUXTON           N/A     64  63  97 S9          N/A
DEVILS LAKE    CLOUDY    66  57  72 SW17      29.50F
FARGO          CLOUDY    62  56  80 S17       29.66R
WAHPETON ARPT  CLOUDY    61  54  77 S13       29.69R
$$

 *****  WEATHER ACROSS CENTRAL AND WESTERN NORTH DAKOTA  *****

CITY           SKY/WX    TMP DP  RH WIND       PRES   REMARKS
JAMESTOWN      LGT RAIN  63  61  93 S15G25    29.58F
BISMARCK       CLOUDY    65  60  84 W7        29.61F
MINOT          CLOUDY    65  55  70 SW13      29.53R
MINOT AFB      CLOUDY    63  57  82 W5        29.51R
GARRISON         N/A     64  57  78 W7        29.58R
WILLISTON      MOCLDY    61  50  67 W13       29.61R
DICKINSON      CLOUDY    62  53  72 W12       29.65S
HETTINGER      CLOUDY    58  54  86 W9        29.71R
$$

 *****  OTHER OBSERVATIONS NORTHEAST NORTH DAKOTA  *****

CITY           SKY/WX    TMP DP  RH WIND       PRES   REMARKS
WALHALLA         N/A     66  64  94 SW6       29.49R
LANGDON        FAIR      64  59  82 SW14      29.51S
CAVALIER       FAIR      64  61  88 S5        29.51R
GRAFTON        FAIR      63  63 100 S10       29.50S
CANDO          CLOUDY    64  59  82 W7        29.52R
FORT TOTTEN      N/A     66  61  85 SW8       29.95
ROLLA          PTSUNNY   63  63 100 W12       29.54R
RUGBY          FAIR      64  59  82 W10       29.53R
 ***** THE ABOVE OBSERVATIONS ARE NON NWS ARE NOT QUALITY
        CONTROLLED AND MAY MIS-REPORT RAIN FOR SNOW...
$$

 *****  OTHER OBSERVATIONS SOUTHEAST NORTH DAKOTA *****

CITY           SKY/WX    TMP DP  RH WIND       PRES   REMARKS
COOPERSTOWN    NOT AVBL
VALLEY CITY    CLOUDY    63  63 100 S20G26    29.58F FOG
OAKES            N/A     61  61 100 S12       29.66F
GWINNER        CLOUDY    64  63  94 SW15G22   29.68F
BUFFALO          N/A     63  60  91 S17         N/A
WYNDMERE         N/A    N/A N/A N/A S8          N/A
 ***** THE ABOVE OBSERVATIONS ARE NON NWS ARE NOT QUALITY
       CONTROLLED AND MAY MIS-REPORT RAIN FOR SNOW...
$$

  *****  WEATHER ACROSS NORTHERN MINNESOTA  *****

CITY           SKY/WX    TMP DP  RH WIND       PRES   REMARKS
FLAG ISLAND    LGT RAIN  59  57  94 S21G30    29.50F
WARROAD        CLOUDY    61  57  88 S8        29.56F
ROSEAU         CLOUDY    63  57  82 S16       29.53F
HALLOCK        CLOUDY    63  59  88 S12       29.52S
THF RVR FALLS  CLOUDY    63  57  82 S20G25    29.56F
HALSTAD          N/A     60  57  89 S24         N/A
FOSSTON        CLOUDY    63  55  77 S18       29.63F
BAUDETTE       CLOUDY    60  56  86 S10       29.60F
WASKISH        CLOUDY    61  55  82 S6        29.64F
CROOKSTON      LGT RAIN  63  57  82 S18       29.57F
$$
  *****  WEATHER ACROSS CENTRAL AND WEST MINNESOTA  *****

CITY           SKY/WX    TMP DP  RH WIND       PRES   REMARKS
BEMIDJI        CLOUDY    60  54  78 S14G23    29.68S
PARK RAPIDS    CLOUDY    60  54  80 S13       29.72F
WADENA         LGT RAIN  59  54  82 S13G21    29.73F
DETROIT LAKES  CLOUDY    61  55  82 S16       29.66F
MOORHEAD       CLOUDY    63  61  94 S13       29.68R
FERGUS FALLS   CLOUDY    61  54  77 S18G30    29.67F
ELBOW LAKE     PTSUNNY   60  56  87 S23G31    29.68F
MORRIS MN      CLOUDY    63  57  82 S17       29.72F
STAPLES        CLOUDY    57  55  94 S12G17    29.76F
WHEATON        CLOUDY    59  55  88 S14G24    29.70F
$$
  *****  WEATHER ELSEWHERE ACROSS MINNESOTA  *****

CITY           SKY/WX    TMP DP  RH WIND       PRES   REMARKS
DULUTH         CLOUDY    56  51  84 S18       29.85F
INTRNTL FALLS  CLOUDY    57  54  89 S8        29.65F
ELY            CLOUDY    57  52  82 S14G25    29.78S
CLOQUET        CLOUDY    57  52  82 S13G21    29.85F
BRAINERD       CLOUDY    58  55  90 S14G23    29.79F
HIBBING        CLOUDY    59  53  80 S12G18    29.79F
ALEXANDRIA     CLOUDY    60  56  86 S20G26    29.77F
SAINT CLOUD    CLOUDY    62  54  74 S12       29.86F
MINNEAPOLIS    PTSUNNY   58  51  78 SE9       29.91F
$$

  *****  WEATHER ACROSS SOUTH DAKOTA  *****

CITY           SKY/WX    TMP DP  RH WIND       PRES   REMARKS
SIOUX FALLS    DRIZZLE   63  61  93 S13       29.81F FOG
BROOKINGS      NOT AVBL
WATERTOWN      CLOUDY    60  59  96 S18G30    29.71F FOG
HURON          CLOUDY    65  61  87 S12G20    29.68F
SISSETON         N/A     63  60  90 S13G21    29.66F
ABERDEEN       CLOUDY    62  59  90 S7        29.70R
MITCHELL       PTCLDY    66  63  90 S13       29.72F
PIERRE         CLOUDY    60  59  96 CALM      29.65F
MOBRIDGE       CLOUDY    62  62 100 CALM      29.64F FOG
RAPID CITY     CLOUDY    60  52  74 W3        29.79R
$$

  *****  SOME WEATHER IN NEARBY STATES *****

CITY           SKY/WX    TMP DP  RH WIND       PRES   REMARKS
GLASGOW MT     CLEAR     54  45  71 W8        29.67R
GREAT FALLS MT CLOUDY    60  44  55 SW12      29.83R
CHEYENNE WY    PTCLDY    56  45  66 NE10      30.05R
SCOTTSBLUFF NE MOCLDY    59  53  80 NW9       29.92R
OMAHA NE       CLOUDY    63  60  90 S18G26    29.93F FOG
DES MOINES IA  MOSUNNY   58  54  86 S9        30.02S
DAVENPORT IA   SUNNY     53  50  89 SE7       30.11S FOG
CHICAGO IL     MOSUNNY   57  51  80 S8        30.15S
EAU CLAIRE WI  PTSUNNY   56  52  86 SE13      29.99F
LA CROSSE WI   SUNNY     57  51  80 S9        30.05R
$$

  *****  SOME NATIONAL WEATHER *****

CITY           SKY/WX    TMP DP  RH WIND       PRES   REMARKS
LA GUARDIA NY  MOSUNNY   57  42  57 NE16G22   30.32R
RALEIGH NC     CLOUDY    66  58  75 E6        30.17R
ATLANTA GA     MOSUNNY   71  65  81 E8        30.08R
NEW ORLEANS LA PTSUNNY   76  69  79 SE3       29.95R
OKLAHOMA CITY  FOG       70  66  88 SE6       29.99S VSB 1/4
ALBUQUERQUE NM MOCLDY    64  56  75 N6        30.08S
SALT LAKE CITY MOCLDY    63  58  83 N6        29.99S
LOS ANGELES CA MOCLDY    69  61  75 CALM      29.88S
BOISE ID       CLEAR     59  48  67 NW5       30.03R
SEATTLE WA     CLOUDY    62  57  83 S3        30.04R
$$

*** WEATHER ACROSS MANITOBA...SASKATCHEWAN AND ONTARIO ***
                ***ONTARIO***

CITY           SKY/WX    TMP DP  RH WIND       PRES   REMARKS
GERALDTON      LGT RAIN  46  46 100 S17G24    29.79
THUNDER BAY    PTSUNNY   54  50  87 S12G18    29.81F
SIOUX LOOKOUT  LGT RAIN  57  54  88 SW14G21   29.59S
TORONTO        PTSUNNY   46  39  76 E8        30.33R
BIG TROUT LK   LGT RAIN  48  46  93 SW8       29.41F
PICKLE LAKE    CLOUDY    52  50  93 SW10      29.53R
DRYDEN         CLOUDY    57  55  94 SW15G25   29.57F
KENORA         CLOUDY    61  55  82 S14G30    29.54F
$$
                *** MANITOBA***

CITY           SKY/WX    TMP DP  RH WIND       PRES   REMARKS
BRANDON        LGT RAIN  59  57  94 NW6       29.48S
DAUPHIN        PTCLDY    55  54  94 N3        29.50R
ISLAND LAKE    NOT AVBL
PILOT MOUND    NOT AVBL
THE PAS        NOT AVBL
THOMPSON       DRIZZLE  N/A N/A N/A NW5         N/A
WINNIPEG       CLOUDY    64  59  82 S15G23    29.45F
LYNN LAKE      CLOUDY    45  41  87 NW3       29.54R
CHURCHILL      CLOUDY    41  37  87 NW17G28   29.39R
GILLAM         CLOUDY    46  46 100 N10       29.43S
$$
                ***SASKATCHEWAN***

CITY           SKY/WX    TMP DP  RH WIND       PRES   REMARKS
ESTEVAN        CLOUDY    59  52  77 W6        29.55R FOG
KINDERSLEY     MOCLDY    52  50  93 NW7       29.65S
LLOYDMINSTER   MOCLDY    52  48  87 W6        29.62R
PRINCE ALBERT  CLOUDY    50  50 100 W2        29.57S
REGINA         MOCLDY    54  52  94 NW9       29.55
YORKTON        LGT RAIN  54  52  94 NE6       29.52R



USA.gov is the U.S. government's official web portal to all federal, state and local government web resources and services.